• In United Kingdom
  • List of Countries
  • For 7 days
  • Water Temperature
  • Satellite Maps
  • Weather Map
  • Weather Widgets
  • user-avatar
    Login

    Hourly Weather Pinsk

    Today, 20 September, Wednesday

    Time Temperature Precipitation Wind Pressure Humidity
    00:00 +12°C° 0.2 mm 2 mps 751 mmHg 76%
    01:00 +12°C° 0.2 mm 2 mps 751 mmHg 80%
    02:00 +12°C° 0 mm 2 mps 750 mmHg 84%
    03:00 +12°C° 1.7 mm 2 mps 750 mmHg 87%
    04:00 +11°C° 1.7 mm 3 mps 750 mmHg 91%
    05:00 +11°C° 1.7 mm 3 mps 749 mmHg 94%
    06:00 +11°C° 1 mm 4 mps 749 mmHg 94%
    07:00 +11°C° 1 mm 4 mps 749 mmHg 93%
    08:00 +12°C° 0 mm 5 mps 749 mmHg 91%
    09:00 +13°C° 0 mm 5 mps 749 mmHg 86%
    10:00 +13°C° 0 mm 5 mps 749 mmHg 81%
    11:00 +14°C° 0 mm 5 mps 749 mmHg 76%
    12:00 +16°C° 0 mm 5 mps 749 mmHg 71%
    13:00 +17°C° 0 mm 5 mps 749 mmHg 66%
    14:00 +19°C° 0 mm 4 mps 749 mmHg 61%
    15:00 +19°C° 0 mm 4 mps 748 mmHg 62%
    16:00 +19°C° 0 mm 4 mps 748 mmHg 64%
    17:00 +18°C° 0 mm 4 mps 748 mmHg 65%
    18:00 +17°C° 0 mm 4 mps 748 mmHg 69%
    19:00 +15°C° 0 mm 4 mps 748 mmHg 72%
    20:00 +14°C° 0 mm 4 mps 748 mmHg 76%
    21:00 +13°C° 0 mm 4 mps 748 mmHg 78%
    22:00 +13°C° 0 mm 4 mps 748 mmHg 80%
    23:00 +12°C° 0 mm 4 mps 748 mmHg 83%

    Tomorrow, 21 September, Thursday

    Time Temperature Precipitation Wind Pressure Humidity
    00:00 +12°C° 0.1 mm 4 mps 748 mmHg 84%
    01:00 +12°C° 0.1 mm 4 mps 747 mmHg 85%
    02:00 +12°C° 0.1 mm 4 mps 747 mmHg 86%
    03:00 +11°C° 1.1 mm 4 mps 747 mmHg 88%
    04:00 +11°C° 1.1 mm 4 mps 746 mmHg 91%
    05:00 +10°C° 1.1 mm 5 mps 745 mmHg 93%
    06:00 +10°C° 1.7 mm 5 mps 745 mmHg 93%
    07:00 +10°C° 1.7 mm 5 mps 745 mmHg 93%
    08:00 +10°C° 1.7 mm 5 mps 745 mmHg 93%
    09:00 +12°C° 0.1 mm 4 mps 745 mmHg 92%
    10:00 +13°C° 0.1 mm 4 mps 745 mmHg 91%
    11:00 +14°C° 0.1 mm 3 mps 745 mmHg 89%
    12:00 +14°C° 0 mm 3 mps 745 mmHg 89%
    13:00 +16°C° 0 mm 3 mps 744 mmHg 88%
    14:00 +17°C° 0 mm 3 mps 744 mmHg 87%
    15:00 +16°C° 0.1 mm 3 mps 744 mmHg 89%
    16:00 +16°C° 0.1 mm 2 mps 744 mmHg 91%
    17:00 +16°C° 0.1 mm 2 mps 744 mmHg 93%
    18:00 +16°C° 0.2 mm 2 mps 744 mmHg 94%
    19:00 +16°C° 0.2 mm 2 mps 744 mmHg 94%
    20:00 +14°C° 0.2 mm 3 mps 744 mmHg 95%
    21:00 +15°C° 0.7 mm 2 mps 744 mmHg 95%
    22:00 +15°C° 0.7 mm 2 mps 744 mmHg 96%
    23:00 +15°C° 0.7 mm 2 mps 744 mmHg 96%

    Day after tomorrow, 22 September, Friday

    Time Temperature Precipitation Wind Pressure Humidity
    00:00 +15°C° 0.3 mm 2 mps 745 mmHg 96%
    01:00 +15°C° 0.3 mm 2 mps 745 mmHg 96%
    02:00 +14°C° 0.3 mm 1 mps 745 mmHg 97%
    03:00 +14°C° 0.1 mm 2 mps 745 mmHg 97%
    04:00 +14°C° 0.1 mm 2 mps 745 mmHg 97%
    05:00 +14°C° 0.1 mm 2 mps 746 mmHg 97%
    06:00 +14°C° 0 mm 2 mps 746 mmHg 96%
    07:00 +15°C° 0 mm 2 mps 747 mmHg 95%
    08:00 +15°C° 0 mm 2 mps 747 mmHg 94%
    09:00 +15°C° 0.1 mm 2 mps 748 mmHg 93%
    10:00 +15°C° 0.1 mm 1 mps 748 mmHg 91%
    11:00 +16°C° 0.1 mm 1 mps 749 mmHg 90%
    12:00 +16°C° 0.2 mm 2 mps 749 mmHg 89%
    13:00 +16°C° 0.2 mm 2 mps 749 mmHg 88%
    14:00 +17°C° 0.2 mm 2 mps 750 mmHg 87%
    15:00 +17°C° 0 mm 2 mps 750 mmHg 87%
    16:00 +17°C° 0 mm 2 mps 750 mmHg 88%
    17:00 +16°C° 0 mm 2 mps 750 mmHg 89%
    18:00 +16°C° 0.1 mm 3 mps 750 mmHg 91%
    19:00 +14°C° 0.1 mm 3 mps 750 mmHg 93%
    20:00 +14°C° 0.1 mm 3 mps 750 mmHg 95%
    21:00 +14°C° 0.2 mm 3 mps 751 mmHg 95%
    22:00 +14°C° 0.2 mm 3 mps 751 mmHg 95%
    23:00 +14°C° 0.2 mm 3 mps 751 mmHg 95%

    23 September, Saturday

    Time Temperature Precipitation Wind Pressure Humidity
    00:00 +13°C° 0 mm 3 mps 751 mmHg 95%
    01:00 +13°C° 0 mm 3 mps 751 mmHg 94%
    02:00 +13°C° 0 mm 3 mps 751 mmHg 94%
    03:00 +13°C° 0 mm 3 mps 751 mmHg 93%
    04:00 +13°C° 0 mm 3 mps 751 mmHg 92%
    05:00 +12°C° 0 mm 3 mps 751 mmHg 90%
    06:00 +13°C° 0 mm 3 mps 752 mmHg 87%
    07:00 +13°C° 0 mm 3 mps 752 mmHg 84%
    08:00 +14°C° 0 mm 4 mps 752 mmHg 81%
    09:00 +16°C° 0 mm 3 mps 752 mmHg 75%
    10:00 +17°C° 0 mm 3 mps 752 mmHg 69%
    11:00 +18°C° 0 mm 3 mps 752 mmHg 63%
    12:00 +19°C° 0 mm 3 mps 753 mmHg 62%
    13:00 +19°C° 0 mm 3 mps 753 mmHg 62%
    14:00 +19°C° 0 mm 3 mps 753 mmHg 61%
    15:00 +19°C° 0 mm 3 mps 753 mmHg 63%
    16:00 +19°C° 0 mm 3 mps 753 mmHg 65%
    17:00 +19°C° 0 mm 2 mps 753 mmHg 67%
    18:00 +18°C° 0 mm 3 mps 753 mmHg 70%
    19:00 +17°C° 0 mm 3 mps 753 mmHg 73%
    20:00 +16°C° 0 mm 3 mps 754 mmHg 76%
    21:00 +14°C° 0 mm 3 mps 754 mmHg 77%
    22:00 +14°C° 0 mm 3 mps 754 mmHg 79%
    23:00 +13°C° 0 mm 3 mps 754 mmHg 81%

    24 September, Sunday

    Time Temperature Precipitation Wind Pressure Humidity
    00:00 +12°C° 0 mm 3 mps 754 mmHg 81%
    01:00 +12°C° 0 mm 3 mps 753 mmHg 82%
    02:00 +12°C° 0 mm 3 mps 753 mmHg 83%
    03:00 +12°C° 0 mm 3 mps 754 mmHg 83%
    04:00 +11°C° 0 mm 3 mps 754 mmHg 82%
    05:00 +11°C° 0 mm 3 mps 754 mmHg 82%
    06:00 +12°C° 0 mm 4 mps 754 mmHg 80%
    07:00 +12°C° 0 mm 4 mps 754 mmHg 77%
    08:00 +13°C° 0 mm 4 mps 754 mmHg 75%
    09:00 +14°C° 0 mm 4 mps 754 mmHg 71%
    10:00 +17°C° 0 mm 4 mps 754 mmHg 66%
    11:00 +19°C° 0 mm 5 mps 755 mmHg 62%
    12:00 +19°C° 0 mm 5 mps 755 mmHg 60%
    13:00 +20°C° 0 mm 5 mps 755 mmHg 58%
    14:00 +21°C° 0 mm 5 mps 755 mmHg 56%
    15:00 +20°C° 0.1 mm 5 mps 755 mmHg 60%
    16:00 +20°C° 0.1 mm 4 mps 755 mmHg 63%
    17:00 +19°C° 0.1 mm 4 mps 755 mmHg 66%
    18:00 +18°C° 0.1 mm 4 mps 755 mmHg 69%
    19:00 +17°C° 0.1 mm 4 mps 755 mmHg 71%
    20:00 +14°C° 0.1 mm 4 mps 755 mmHg 74%
    21:00 +14°C° 0 mm 4 mps 756 mmHg 75%
    22:00 +13°C° 0 mm 4 mps 756 mmHg 76%
    23:00 +13°C° 0 mm 4 mps 756 mmHg 77%

    25 September, Monday

    Time Temperature Precipitation Wind Pressure Humidity
    00:00 +12°C° 0 mm 4 mps 756 mmHg 78%
    01:00 +12°C° 0 mm 4 mps 756 mmHg 79%
    02:00 +12°C° 0 mm 4 mps 756 mmHg 80%
    03:00 +11°C° 0 mm 4 mps 756 mmHg 80%
    04:00 +11°C° 0 mm 4 mps 756 mmHg 79%
    05:00 +11°C° 0 mm 4 mps 756 mmHg 79%
    06:00 +11°C° 0 mm 4 mps 756 mmHg 77%
    07:00 +11°C° 0 mm 4 mps 756 mmHg 75%
    08:00 +12°C° 0 mm 4 mps 756 mmHg 73%
    09:00 +13°C° 0 mm 4 mps 757 mmHg 68%
    10:00 +15°C° 0 mm 4 mps 757 mmHg 63%
    11:00 +18°C° 0 mm 4 mps 757 mmHg 57%
    12:00 +19°C° 0 mm 4 mps 757 mmHg 55%
    13:00 +20°C° 0 mm 4 mps 756 mmHg 54%
    14:00 +21°C° 0 mm 4 mps 756 mmHg 52%
    15:00 +20°C° 0 mm 4 mps 756 mmHg 55%
    16:00 +20°C° 0 mm 4 mps 756 mmHg 58%
    17:00 +19°C° 0 mm 3 mps 756 mmHg 61%
    18:00 +18°C° 0 mm 3 mps 756 mmHg 65%
    19:00 +17°C° 0 mm 4 mps 757 mmHg 68%
    20:00 +15°C° 0 mm 4 mps 757 mmHg 72%
    21:00 +14°C° 0 mm 3 mps 757 mmHg 74%
    22:00 +13°C° 0 mm 3 mps 757 mmHg 77%
    23:00 +13°C° 0 mm 3 mps 757 mmHg 80%
    Show more